Weather History for Sisseton, SD

Change the Weather History Date:

Monday, September 26, 2011

  Actual Average Record
Temperature  
Mean Temperature 55 °F 55 °F  
Max Temperature 73 °F 68 °F 92 °F (1974)
Min Temperature 37 °F 43 °F 22 °F (1965)
Degree Days  
Heating Degree Days 10 10  
Month to date heating degree days 187 158  
Since 1 July heating degree days 189 201  
Cooling Degree Days 0 0  
Month to date cooling degree days 35 44  
Year to date cooling degree days 621 523  
Growing Degree Days 4 (Base 50)    
Moisture  
Dew Point 44 °F    
Average Humidity 69    
Maximum Humidity 93    
Minimum Humidity 44    
Precipitation  
Precipitation 0.00 in 0.09 in 0.81 in (1942)
Month to date precipitation 0.42 2.19  
Year to date precipitation 19.93 18.93  
Sea Level Pressure  
Sea Level Pressure 29.97 in    
Wind  
Wind Speed 3 mph (NNE)    
Max Wind Speed 12 mph    
Max Gust Speed 17 mph    
T = Trace of Precipitation, MM = Missing Value Source: NWS Daily Summary

Daily Weather History Graph

Daily Weather History Graph

Search for Another Location

Airport:

Trip Planner

Search our weather history database for the weather conditions in past years. The results will help you decide how hot, cold, wet, or windy it might be!

Date:

Astronomy

Sep. 26, 2011 Rise Set
Actual Time 7:19 AM CDT 7:18 PM CDT
Civil Twilight 6:50 AM CDT 7:47 PM CDT
Nautical Twilight 6:15 AM CDT 8:22 PM CDT
Astronomical Twilight 5:39 AM CDT 8:57 PM CDT
Moon 6:20 AM CDT (9/26) 6:32 PM CDT (9/26)
Length of Visible Light 12h 57m
Length of Day
11h 58m
Waning Crescent, 1% of the Moon is Illuminated
Sep 26
Waning Crescent
Sep 27
New
Oct 3
First Quarter
Oct 11
Full
Oct 19
Last Quarter

Hourly Weather History & Observations

Time (CDT) Temp. Dew Point Humidity Pressure Visibility Wind Dir Wind Speed Gust Speed Precip Events Conditions
12:56 AM 39.0 °F 36.0 °F 89% 29.98 in - Calm Calm - N/A   Unknown
1:56 AM 39.0 °F 36.0 °F 89% 29.98 in - Calm Calm - N/A   Unknown
2:56 AM 39.9 °F 37.0 °F 89% 29.99 in - Calm Calm - N/A   Unknown
3:56 AM 37.9 °F 36.0 °F 93% 29.99 in - Calm Calm - N/A   Unknown
4:56 AM 39.9 °F 37.9 °F 93% 29.97 in - Calm Calm - N/A   Unknown
5:56 AM 37.9 °F 36.0 °F 93% 29.99 in - Calm Calm - N/A   Unknown
6:56 AM 37.0 °F 35.1 °F 93% 30.00 in - Calm Calm - N/A   Unknown
7:56 AM 39.9 °F 37.0 °F 89% 30.01 in - Calm Calm - N/A   Unknown
8:56 AM 48.9 °F 44.1 °F 83% 30.00 in - NNW 3.5 mph - N/A   Unknown
9:56 AM 57.9 °F 48.0 °F 70% 30.00 in - NNE 3.5 mph - N/A   Unknown
10:56 AM 61.0 °F 48.0 °F 62% 30.00 in - NE 4.6 mph - N/A   Unknown
11:56 AM 64.9 °F 48.9 °F 56% 29.99 in - NE 3.5 mph - N/A   Unknown
12:56 PM 66.9 °F 48.9 °F 52% 29.99 in - ENE 4.6 mph - N/A   Unknown
1:56 PM 68.0 °F 48.9 °F 50% 29.97 in - ENE 5.8 mph - N/A   Unknown
2:56 PM 70.0 °F 48.0 °F 46% 29.94 in - ESE 6.9 mph - N/A   Unknown
3:56 PM 72.0 °F 48.0 °F 43% 29.93 in - Variable 6.9 mph - N/A   Unknown
4:56 PM 72.0 °F 48.0 °F 43% 29.91 in - NNE 5.8 mph - N/A   Unknown
5:56 PM 71.1 °F 48.0 °F 44% 29.92 in - NE 4.6 mph - N/A   Unknown
6:56 PM 66.0 °F 48.9 °F 54% 29.94 in - North 4.6 mph - N/A   Unknown
7:56 PM 57.9 °F 48.0 °F 70% 29.95 in - NNW 6.9 mph - N/A   Unknown
8:56 PM 54.0 °F 46.9 °F 77% 29.95 in - NNW 5.8 mph - N/A   Unknown
9:56 PM 51.1 °F 46.0 °F 83% 29.94 in - NNW 4.6 mph - N/A   Unknown
10:56 PM 48.9 °F 45.0 °F 86% 29.94 in - NW 3.5 mph - N/A   Unknown
11:56 PM 46.9 °F 44.1 °F 90% 29.95 in - NW 3.5 mph - N/A   Unknown